| time (UTC) | temp F | wind direction | speed MPH | gust MPH | rain 1hr in | rain 24hr in | rain mn in | humidity % | barometer mb |
| 20260906193112 | 62 | 320 | 1.0 | 4.0 | 0.00 | 0.00 | 0.00 | 40 | 1027.5 |
| 20260906192112 | 62 | 350 | 3.0 | 7.0 | 0.00 | 0.00 | 0.00 | 40 | 1027.4 |
| 20260906191112 | 62 | 345 | 4.0 | 5.0 | 0.00 | 0.00 | 0.00 | 40 | 1027.4 |
| 20260906190112 | 63 | 360 | 3.0 | 4.0 | 0.00 | 0.00 | 0.00 | 38 | 1027.3 |
| 20260906185112 | 65 | 355 | 1.0 | 3.0 | 0.00 | 0.00 | 0.00 | 37 | 1027.3 |
| 20260906184112 | 66 | 355 | 1.0 | 3.0 | 0.00 | 0.00 | 0.00 | 35 | 1027.3 |
| 20260906183112 | 67 | 355 | 3.0 | 5.0 | 0.00 | 0.00 | 0.00 | 33 | 1027.2 |
| 20260906182112 | 68 | 355 | 2.0 | 4.0 | 0.00 | 0.00 | 0.00 | 32 | 1027.2 |
| 20260906181112 | 69 | 34 | 1.0 | 4.0 | 0.00 | 0.00 | 0.00 | 31 | 1027.0 |
| 20260906180112 | 70 | 32 | 4.0 | 6.0 | 0.00 | 0.00 | 0.00 | 30 | 1026.8 |
| 20260906175112 | 70 | 26 | 5.0 | 6.0 | 0.00 | 0.00 | 0.00 | 29 | 1026.8 |
| 20260906174112 | 71 | 34 | 2.0 | 6.0 | 0.00 | 0.00 | 0.00 | 28 | 1026.6 |
| 20260906173112 | 72 | 37 | 3.0 | 7.0 | 0.00 | 0.00 | 0.00 | 27 | 1026.4 |
| 20260906172112 | 72 | 10 | 3.0 | 9.0 | 0.00 | 0.00 | 0.00 | 26 | 1026.4 |
| 20260906171112 | 73 | 17 | 7.0 | 10.0 | 0.00 | 0.00 | 0.00 | 26 | 1026.2 |
| 20260906170112 | 74 | 360 | 6.0 | 9.0 | 0.00 | 0.00 | 0.00 | 25 | 1026.2 |
| 20260906165112 | 74 | 20 | 6.0 | 9.0 | 0.00 | 0.00 | 0.00 | 24 | 1026.2 |
| 20260906164112 | 74 | 15 | 5.0 | 11.0 | 0.00 | 0.00 | 0.00 | 24 | 1026.1 |
| 20260906163112 | 75 | 355 | 6.0 | 12.0 | 0.00 | 0.00 | 0.00 | 23 | 1026.1 |
| 20260906162112 | 76 | 355 | 9.0 | 13.0 | 0.00 | 0.00 | 0.00 | 23 | 1026.2 |
| 20260906161112 | 76 | 355 | 5.0 | 12.0 | 0.00 | 0.00 | 0.00 | 23 | 1026.2 |
| 20260906160111 | 76 | 19 | 9.0 | 12.0 | 0.00 | 0.00 | 0.00 | 23 | 1026.3 |
| 20260906155111 | 76 | 22 | 9.0 | 11.0 | 0.00 | 0.00 | 0.00 | 23 | 1026.3 |
| 20260906154112 | 76 | 16 | 7.0 | 11.0 | 0.00 | 0.00 | 0.00 | 22 | 1026.3 |
| 20260906153111 | 77 | 5 | 9.0 | 17.0 | 0.00 | 0.00 | 0.00 | 22 | 1026.3 |
| 20260906152112 | 77 | 339 | 11.0 | 16.0 | 0.00 | 0.00 | 0.00 | 21 | 1026.3 |
| 20260906151111 | 77 | 29 | 9.0 | 14.0 | 0.00 | 0.00 | 0.00 | 21 | 1026.3 |
| 20260906150111 | 78 | 32 | 9.0 | 11.0 | 0.00 | 0.00 | 0.00 | 21 | 1026.5 |
| 20260906145112 | 78 | 355 | 5.0 | 12.0 | 0.00 | 0.00 | 0.00 | 22 | 1026.5 |
| 20260906144111 | 78 | 355 | 6.0 | 14.0 | 0.00 | 0.00 | 0.00 | 22 | 1026.4 |
| 20260906143111 | 78 | 338 | 10.0 | 17.0 | 0.00 | 0.00 | 0.00 | 21 | 1026.4 |
| 20260906142111 | 78 | 360 | 8.0 | 14.0 | 0.00 | 0.00 | 0.00 | 21 | 1026.5 |
| 20260906141111 | 78 | 13 | 12.0 | 18.0 | 0.00 | 0.00 | 0.00 | 22 | 1026.4 |
| 20260906140111 | 78 | 24 | 4.0 | 10.0 | 0.00 | 0.00 | 0.00 | 24 | 1026.6 |
| 20260906135111 | 78 | 295 | 11.0 | 16.0 | 0.00 | 0.00 | 0.00 | 23 | 1026.6 |
| 20260906134111 | 78 | 341 | 6.0 | 13.0 | 0.00 | 0.00 | 0.00 | 24 | 1026.6 |
| 20260906133111 | 78 | 5 | 10.0 | 19.0 | 0.00 | 0.00 | 0.00 | 23 | 1026.7 |
| 20260906132111 | 78 | 346 | 11.0 | 19.0 | 0.00 | 0.00 | 0.00 | 24 | 1026.7 |
| 20260906131111 | 78 | 320 | 9.0 | 17.0 | 0.00 | 0.00 | 0.00 | 26 | 1027.0 |
| 20260906130111 | 78 | 347 | 8.0 | 15.0 | 0.00 | 0.00 | 0.00 | 25 | 1026.9 |
| 20260906125111 | 77 | 298 | 9.0 | 13.0 | 0.00 | 0.00 | 0.00 | 27 | 1027.0 |
| 20260906124111 | 77 | 300 | 10.0 | 16.0 | 0.00 | 0.00 | 0.00 | 27 | 1027.0 |
| 20260906123111 | 77 | 344 | 12.0 | 17.0 | 0.00 | 0.00 | 0.00 | 26 | 1027.0 |
| 20260906122111 | 77 | 12 | 8.0 | 14.0 | 0.00 | 0.00 | 0.00 | 28 | 1027.2 |
| 20260906121111 | 76 | 254 | 8.0 | 17.0 | 0.00 | 0.00 | 0.00 | 29 | 1027.3 |
| 20260906120111 | 67 | 325 | 11.0 | 16.0 | 0.00 | 0.00 | 0.00 | 44 | 1027.8 |
| 20260906115111 | 76 | 336 | 7.0 | 13.0 | 0.00 | 0.00 | 0.00 | 30 | 1027.4 |
| 20260906114111 | 76 | 267 | 8.0 | 15.0 | 0.00 | 0.00 | 0.00 | 30 | 1027.3 |
| 20260906113111 | 75 | 334 | 8.0 | 19.0 | 0.00 | 0.00 | 0.00 | 30 | 1027.4 |
| 20260906112111 | 75 | 318 | 11.0 | 19.0 | 0.00 | 0.00 | 0.00 | 31 | 1027.4 |
| 20260906111111 | 75 | 323 | 10.0 | 15.0 | 0.00 | 0.00 | 0.00 | 31 | 1027.7 |
| 20260906110110 | 75 | 327 | 14.0 | 22.0 | 0.00 | 0.00 | 0.00 | 31 | 1027.7 |
| 20260906105111 | 74 | 308 | 9.0 | 16.0 | 0.00 | 0.01 | 0.00 | 33 | 1027.8 |
| 20260906104111 | 73 | 333 | 14.0 | 18.0 | 0.00 | 0.01 | 0.00 | 33 | 1027.8 |
| 20260906103111 | 73 | 329 | 14.0 | 20.0 | 0.00 | 0.01 | 0.00 | 34 | 1027.8 |
| 20260906102110 | 72 | 323 | 12.0 | 20.0 | 0.00 | 0.01 | 0.00 | 34 | 1028.1 |
| 20260906101111 | 72 | 284 | 11.0 | 21.0 | 0.00 | 0.01 | 0.00 | 35 | 1028.1 |
| 20260906100110 | 72 | 294 | 8.0 | 19.0 | 0.00 | 0.01 | 0.00 | 35 | 1028.1 |
| 20260906095110 | 72 | 335 | 11.0 | 19.0 | 0.00 | 0.01 | 0.00 | 36 | 1028.2 |
| 20260906094110 | 72 | 344 | 12.0 | 16.0 | 0.00 | 0.01 | 0.00 | 35 | 1028.2 |
| 20260906093110 | 72 | 265 | 4.0 | 14.0 | 0.00 | 0.01 | 0.00 | 38 | 1028.1 |
| 20260906092110 | 71 | 322 | 15.0 | 19.0 | 0.00 | 0.01 | 0.00 | 36 | 1028.2 |
| 20260906091110 | 71 | 328 | 15.0 | 19.0 | 0.00 | 0.01 | 0.00 | 38 | 1028.2 |
| 20260906090110 | 71 | 344 | 11.0 | 18.0 | 0.00 | 0.01 | 0.00 | 38 | 1028.2 |
| 20260906085110 | 71 | 5 | 9.0 | 18.0 | 0.00 | 0.01 | 0.00 | 38 | 1028.2 |
| 20260906084110 | 70 | 305 | 6.0 | 17.0 | 0.00 | 0.01 | 0.00 | 39 | 1028.4 |
| 20260906083110 | 70 | 9 | 8.0 | 15.0 | 0.00 | 0.01 | 0.00 | 39 | 1028.4 |
| 20260906082110 | 70 | 360 | 8.0 | 18.0 | 0.00 | 0.01 | 0.00 | 40 | 1028.4 |
| 20260906081110 | 69 | 336 | 9.0 | 16.0 | 0.00 | 0.01 | 0.00 | 41 | 1028.2 |
| 20260906080110 | 69 | 327 | 14.0 | 18.0 | 0.00 | 0.01 | 0.00 | 41 | 1028.5 |
| 20260906075110 | 69 | 321 | 10.0 | 16.0 | 0.00 | 0.02 | 0.00 | 42 | 1028.1 |
| 20260906074110 | 68 | 306 | 14.0 | 20.0 | 0.00 | 0.02 | 0.00 | 42 | 1028.0 |
| 20260906073110 | 67 | 336 | 9.0 | 16.0 | 0.00 | 0.02 | 0.00 | 44 | 1027.9 |
| 20260906072110 | 67 | 322 | 10.0 | 16.0 | 0.00 | 0.02 | 0.00 | 45 | 1027.7 |
| 20260906071110 | 66 | 348 | 10.0 | 13.0 | 0.00 | 0.02 | 0.00 | 46 | 1027.7 |
| 20260906070110 | 65 | 322 | 10.0 | 15.0 | 0.00 | 0.02 | 0.00 | 49 | 1027.7 |
| 20260906065110 | 64 | 303 | 11.0 | 14.0 | 0.00 | 0.06 | 0.00 | 51 | 1027.5 |
| 20260906064110 | 62 | 337 | 9.0 | 13.0 | 0.00 | 0.06 | 0.00 | 55 | 1027.5 |
| 20260906063110 | 60 | 341 | 3.0 | 8.0 | 0.00 | 0.06 | 0.00 | 60 | 1027.4 |
| 20260906062110 | 58 | 317 | 4.0 | 6.0 | 0.00 | 0.06 | 0.00 | 63 | 1027.4 |
| 20260906061110 | 56 | 350 | 1.0 | 2.0 | 0.00 | 0.06 | 0.00 | 67 | 1027.4 |
| 20260906060110 | 54 | 350 | 0.0 | 2.0 | 0.00 | 0.06 | 0.00 | 73 | 1027.2 |
| 20260906055110 | 53 | 350 | 0.0 | 1.0 | 0.00 | 0.08 | 0.00 | 74 | 1027.3 |
| 20260906054110 | 52 | 350 | 0.0 | 0.0 | 0.00 | 0.08 | 0.00 | 74 | 1027.2 |
| 20260906053110 | 51 | 350 | 0.0 | 1.0 | 0.00 | 0.08 | 0.00 | 72 | 1027.0 |
| 20260906052110 | 50 | 350 | 0.0 | 0.0 | 0.00 | 0.08 | 0.00 | 71 | 1026.9 |
| 20260906051110 | 49 | 350 | 0.0 | 1.0 | 0.00 | 0.08 | 0.00 | 70 | 1026.8 |
| 20260906050110 | 49 | 346 | 0.0 | 0.0 | 0.00 | 0.08 | 0.00 | 69 | 1026.7 |
| 20260906045110 | 49 | 345 | 0.0 | 0.0 | 0.00 | 0.08 | 0.00 | 68 | 1026.6 |
| 20260906044110 | 49 | 347 | 0.0 | 0.0 | 0.00 | 0.08 | 0.00 | 68 | 1026.6 |
| 20260906043110 | 49 | 347 | 0.0 | 0.0 | 0.00 | 0.08 | 0.00 | 68 | 1026.4 |
| 20260906042110 | 50 | 347 | 0.0 | 0.0 | 0.00 | 0.08 | 0.00 | 68 | 1026.3 |
| 20260906041110 | 50 | 347 | 0.0 | 0.0 | 0.00 | 0.08 | 0.00 | 67 | 1026.3 |
| 20260906040110 | 50 | 347 | 0.0 | 0.0 | 0.00 | 0.08 | 0.00 | 67 | 1026.2 |
| 20260906035110 | 51 | 347 | 0.0 | 0.0 | 0.00 | 0.08 | 0.00 | 67 | 1026.2 |
| 20260906034110 | 51 | 347 | 0.0 | 0.0 | 0.00 | 0.08 | 0.00 | 66 | 1026.3 |
| 20260906033110 | 51 | 347 | 0.0 | 1.0 | 0.00 | 0.08 | 0.00 | 66 | 1026.1 |
| 20260906032109 | 52 | 347 | 2.0 | 3.0 | 0.00 | 0.08 | 0.00 | 67 | 1026.2 |
| 20260906031110 | 53 | 347 | 0.0 | 0.0 | 0.00 | 0.08 | 0.00 | 66 | 1026.0 |
| 20260906030110 | 53 | 347 | 0.0 | 3.0 | 0.00 | 0.08 | 0.00 | 66 | 1025.9 |
| 20260906025109 | 54 | 355 | 0.0 | 0.0 | 0.00 | 0.08 | 0.00 | 66 | 1025.9 |
| 20260906024109 | 54 | 355 | 2.0 | 3.0 | 0.00 | 0.08 | 0.00 | 67 | 1025.9 |
| 20260906023109 | 55 | 355 | 1.0 | 3.0 | 0.00 | 0.08 | 0.00 | 66 | 1025.8 |
| 20260906022109 | 55 | 306 | 1.0 | 4.0 | 0.00 | 0.08 | 0.00 | 64 | 1025.9 |
| 20260906021109 | 56 | 288 | 0.0 | 0.0 | 0.00 | 0.08 | 0.00 | 63 | 1025.8 |
| 20260906020109 | 56 | 288 | 0.0 | 0.0 | 0.00 | 0.08 | 0.00 | 63 | 1025.8 |
| 20260906015109 | 56 | 288 | 0.0 | 4.0 | 0.00 | 0.08 | 0.00 | 62 | 1025.7 |
| 20260906014109 | 56 | 295 | 3.0 | 6.0 | 0.00 | 0.08 | 0.00 | 63 | 1025.6 |
| 20260906013109 | 56 | 300 | 1.0 | 3.0 | 0.00 | 0.08 | 0.00 | 64 | 1025.6 |
| 20260906012109 | 56 | 302 | 0.0 | 0.0 | 0.00 | 0.08 | 0.00 | 63 | 1025.5 |
| 20260906011109 | 57 | 297 | 0.0 | 0.0 | 0.00 | 0.08 | 0.00 | 63 | 1025.5 |
| 20260906005110 | 57 | 293 | 0.0 | 0.0 | 0.00 | 0.08 | 0.00 | 64 | 1025.2 |
| 20260906004110 | 57 | 293 | 0.0 | 0.0 | 0.00 | 0.08 | 0.00 | 62 | 1025.2 |
| 20260906003111 | 58 | 293 | 0.0 | 0.0 | 0.00 | 0.08 | 0.00 | 62 | 1025.2 |
| 20260906002110 | 58 | 294 | 0.0 | 0.0 | 0.00 | 0.08 | 0.00 | 63 | 1025.0 |
| 20260906001110 | 59 | 294 | 0.0 | 0.0 | 0.00 | 0.08 | 0.00 | 63 | 1025.1 |
| 20260906000110 | 59 | 294 | 0.0 | 0.0 | 0.00 | 0.08 | 0.00 | 61 | 1024.9 |
| 20260905235110 | 60 | 274 | 0.0 | 0.0 | 0.00 | 0.08 | 0.00 | 59 | 1024.9 |
| 20260905234110 | 61 | 325 | 0.0 | 0.0 | 0.00 | 0.08 | 0.00 | 59 | 1024.8 |
| 20260905233110 | 62 | 326 | 0.0 | 0.0 | 0.00 | 0.08 | 0.00 | 59 | 1024.4 |
| 20260905232110 | 62 | 326 | 0.0 | 0.0 | 0.00 | 0.08 | 0.00 | 59 | 1024.6 |
| 20260905231110 | 62 | 326 | 0.0 | 0.0 | 0.00 | 0.08 | 0.00 | 58 | 1024.4 |
| 20260905230110 | 63 | 319 | 0.0 | 0.0 | 0.00 | 0.08 | 0.00 | 57 | 1024.2 |
| 20260905225110 | 64 | 317 | 0.0 | 0.0 | 0.00 | 0.08 | 0.00 | 56 | 1024.2 |
| 20260905224110 | 64 | 317 | 2.0 | 3.0 | 0.00 | 0.08 | 0.00 | 55 | 1024.0 |
| 20260905223110 | 65 | 317 | 1.0 | 3.0 | 0.00 | 0.08 | 0.00 | 55 | 1024.1 |
| 20260905222110 | 65 | 326 | 3.0 | 6.0 | 0.00 | 0.08 | 0.00 | 55 | 1024.0 |
| 20260905221110 | 66 | 317 | 5.0 | 8.0 | 0.00 | 0.08 | 0.00 | 55 | 1024.0 |
| 20260905220110 | 66 | 332 | 5.0 | 11.0 | 0.00 | 0.08 | 0.00 | 55 | 1023.9 |
| 20260905215110 | 67 | 319 | 7.0 | 12.0 | 0.00 | 0.08 | 0.08 | 55 | 1024.0 |
| 20260905214113 | 67 | 348 | 7.0 | 15.0 | 0.00 | 0.08 | 0.08 | 56 | 1023.8 |
| 20260905213113 | 66 | 293 | 11.0 | 15.0 | 0.00 | 0.08 | 0.08 | 57 | 1023.6 |
| 20260905212113 | 66 | 302 | 7.0 | 11.0 | 0.00 | 0.08 | 0.08 | 57 | 1023.3 |
| 20260905211113 | 67 | 254 | 8.0 | 11.0 | 0.00 | 0.08 | 0.08 | 57 | 1023.2 |
| 20260905210113 | 67 | 258 | 8.0 | 15.0 | 0.00 | 0.08 | 0.08 | 56 | 1022.9 |
| 20260905205113 | 67 | 236 | 9.0 | 13.0 | 0.00 | 0.08 | 0.08 | 56 | 1022.9 |
| 20260905204113 | 67 | 269 | 7.0 | 12.0 | 0.00 | 0.08 | 0.08 | 56 | 1022.8 |
| 20260905203113 | 67 | 235 | 10.0 | 14.0 | 0.00 | 0.08 | 0.08 | 56 | 1022.7 |
| 20260905202113 | 66 | 248 | 11.0 | 13.0 | 0.00 | 0.08 | 0.08 | 56 | 1022.6 |
| 20260905201113 | 66 | 268 | 9.0 | 12.0 | 0.00 | 0.08 | 0.08 | 55 | 1022.6 |
| 20260905200113 | 66 | 241 | 8.0 | 11.0 | 0.00 | 0.08 | 0.08 | 55 | 1022.5 |
| 20260905195113 | 66 | 261 | 7.0 | 12.0 | 0.00 | 0.08 | 0.08 | 55 | 1022.3 |
| 20260905194113 | 66 | 246 | 7.0 | 10.0 | 0.00 | 0.08 | 0.08 | 54 | 1022.4 |